Track IDEFIX/ARIANE 42P now! 10-day predictions IDEFIX/ARIANE 42P is classified as:
1 27422U 02021B 24325.85257206 .00000658 00000-0 26893-3 0 9993 2 27422 98.5422 260.5169 0012515 137.9795 222.2350 14.30482468176261